Weather History for Blacksburg, VA

Change the Weather History Date:

Thursday, January 24, 2013

  Actual Average Record
Temperature  
Mean Temperature 23 °F 32 °F  
Max Temperature 34 °F 42 °F 67 °F (1967)
Min Temperature 11 °F 22 °F -11 °F (1963)
Degree Days  
Heating Degree Days 42 33  
Month to date heating degree days 701 813  
Since 1 July heating degree days 2790 2960  
Cooling Degree Days 0 0  
Month to date cooling degree days 0 0  
Year to date cooling degree days 0 0  
Moisture  
Dew Point 13 °F    
Average Humidity 60    
Maximum Humidity 74    
Minimum Humidity 46    
Precipitation  
Precipitation T in 0.10 in 1.11 in (1999)
Month to date precipitation 5.35 2.41  
Year to date precipitation 5.35 2.41  
Snow  
Snow T in - - ()
Month to date snowfall 7.2  
Since 1 July snowfall 9.7  
Snow Depth T in    
Sea Level Pressure  
Sea Level Pressure 30.21 in    
Wind  
Wind Speed 12 mph (NW)    
Max Wind Speed 23 mph    
Max Gust Speed 36 mph    
Visibility 10 miles    
Events Snow    
T = Trace of Precipitation, MM = Missing Value Source: NWS Daily Summary

Daily Weather History Graph

Daily Weather History Graph

Search for Another Location

Airport:

Trip Planner

Search our weather history database for the weather conditions in past years. The results will help you decide how hot, cold, wet, or windy it might be!

Date:

Astronomy

Jan. 24, 2013 Rise Set
Actual Time 7:30 AM EST 5:37 PM EST
Civil Twilight 7:02 AM EST 6:05 PM EST
Nautical Twilight 6:30 AM EST 6:37 PM EST
Astronomical Twilight 5:59 AM EST 7:08 PM EST
Moon 3:39 PM EST (1/24) 5:25 AM EST (1/24)
Length of Visible Light 11h 03m
Length of Day
10h 07m
Waxing Gibbous, 94% of the Moon is Illuminated
Jan 24
Waxing Gibbous
Jan 26
Full
Feb 3
Last Quarter
Feb 10
New
Feb 17
First Quarter

Hourly Weather History & Observations

Time (EST) Temp. Windchill Dew Point Humidity Pressure Visibility Wind Dir Wind Speed Gust Speed Precip Events Conditions
12:35 AM 35.6 °F - 24.8 °F 65% 29.94 in 10.0 mi Calm Calm - N/A   Overcast
12:57 AM 35.6 °F 29.2 °F 26.6 °F 70% 29.93 in 10.0 mi West 8.1 mph - N/A   Overcast
1:17 AM 35.6 °F 28.0 °F 26.6 °F 70% 29.92 in 10.0 mi West 10.4 mph - N/A   Overcast
1:35 AM 37.4 °F 29.3 °F 26.6 °F 65% 29.92 in 10.0 mi WNW 12.7 mph 26.5 mph N/A   Overcast
1:55 AM 37.4 °F 29.3 °F 26.6 °F 65% 29.93 in 10.0 mi WNW 12.7 mph 21.9 mph N/A   Overcast
2:55 AM 35.6 °F 25.5 °F 24.8 °F 65% 29.94 in 10.0 mi WNW 17.3 mph 24.2 mph N/A   Overcast
3:15 AM 33.8 °F 22.5 °F 24.8 °F 70% 29.95 in 10.0 mi NW 19.6 mph 27.6 mph N/A   Overcast
3:35 AM 32.0 °F 20.5 °F 21.2 °F 64% 29.95 in 10.0 mi WNW 18.4 mph 29.9 mph N/A   Overcast
3:57 AM 30.2 °F 16.8 °F 21.2 °F 69% 29.96 in 10.0 mi WNW 23.0 mph 35.7 mph N/A   Overcast
4:17 AM 30.2 °F 18.1 °F 21.2 °F 69% 29.96 in 10.0 mi WNW 18.4 mph 28.8 mph N/A   Overcast
4:37 AM 30.2 °F 17.1 °F 19.4 °F 64% 29.96 in 10.0 mi WNW 21.9 mph 29.9 mph N/A   Overcast
4:57 AM 28.4 °F 15.4 °F 19.4 °F 69% 29.98 in 10.0 mi WNW 19.6 mph 25.3 mph N/A   Overcast
5:15 AM 28.4 °F 16.6 °F 19.4 °F 69% 29.99 in 10.0 mi WNW 16.1 mph 31.1 mph N/A   Overcast
5:35 AM 28.4 °F 15.1 °F 17.6 °F 64% 30.00 in 10.0 mi WNW 20.7 mph 29.9 mph N/A   Mostly Cloudy
5:55 AM 26.6 °F 13.4 °F 15.8 °F 64% 30.01 in 10.0 mi WNW 18.4 mph 24.2 mph N/A   Mostly Cloudy
6:15 AM 26.6 °F 11.7 °F 15.8 °F 64% 30.02 in 10.0 mi WNW 24.2 mph 39.1 mph N/A   Mostly Cloudy
6:39 AM 26.6 °F 12.7 °F 17.6 °F 69% 30.04 in 10.0 mi WNW 20.7 mph 32.2 mph N/A Snow Light Snow
6:57 AM 26.6 °F 12.7 °F 17.6 °F 69% 30.06 in 10.0 mi WNW 20.7 mph 26.5 mph N/A Snow Light Snow
7:19 AM 24.8 °F 11.9 °F 17.6 °F 74% 30.08 in 7.0 mi WNW 16.1 mph 23.0 mph N/A Snow Light Snow
7:35 AM 24.8 °F 11.5 °F 17.6 °F 74% 30.10 in 7.0 mi WNW 17.3 mph 29.9 mph N/A Snow Light Snow
7:55 AM 23.0 °F 10.1 °F 15.8 °F 74% 30.12 in 10.0 mi WNW 15.0 mph 25.3 mph N/A   Overcast
8:19 AM 23.0 °F 8.0 °F 12.2 °F 63% 30.16 in 10.0 mi NW 20.7 mph 26.5 mph N/A   Overcast
8:57 AM 21.2 °F 7.3 °F 12.2 °F 68% 30.20 in 10.0 mi WNW 16.1 mph 23.0 mph N/A   Overcast
9:19 AM 21.2 °F 9.5 °F 12.2 °F 68% 30.21 in 10.0 mi WNW 11.5 mph 20.7 mph N/A   Overcast
9:39 AM 23.0 °F 9.2 °F 10.4 °F 59% 30.23 in 10.0 mi NW 17.3 mph 27.6 mph N/A   Mostly Cloudy
9:59 AM 21.2 °F 5.6 °F 6.8 °F 54% 30.24 in 10.0 mi NNW 20.7 mph 33.4 mph N/A   Scattered Clouds
10:35 AM 23.0 °F 7.2 °F 6.8 °F 50% 30.26 in 10.0 mi NW 23.0 mph 29.9 mph N/A   Mostly Cloudy
10:55 AM 21.2 °F 6.4 °F 5.0 °F 50% 30.27 in 10.0 mi WNW 18.4 mph 29.9 mph N/A   Clear
11:35 AM 23.0 °F 10.1 °F 6.8 °F 50% 30.29 in 10.0 mi NNW 15.0 mph 26.5 mph N/A   Clear
11:57 AM 24.8 °F 10.7 °F 6.8 °F 46% 30.30 in 10.0 mi NNW 19.6 mph 32.2 mph N/A   Clear
12:39 PM 24.8 °F 11.1 °F 6.8 °F 46% 30.31 in 10.0 mi North 18.4 mph 27.6 mph N/A   Clear
12:55 PM 24.8 °F 11.5 °F 8.6 °F 50% 30.31 in 10.0 mi NNW 17.3 mph 23.0 mph N/A   Clear
1:15 PM 24.8 °F 11.9 °F 10.4 °F 54% 30.32 in 10.0 mi North 16.1 mph 19.6 mph N/A   Mostly Cloudy
1:55 PM 24.8 °F 12.4 °F 8.6 °F 50% 30.32 in 10.0 mi NNW 15.0 mph 19.6 mph N/A   Mostly Cloudy
2:18 PM 24.8 °F 12.9 °F 8.6 °F 50% 30.32 in 10.0 mi NNW 13.8 mph - N/A   Clear
2:37 PM 24.8 °F 12.4 °F 6.8 °F 46% 30.32 in 10.0 mi NNW 15.0 mph 24.2 mph N/A   Clear
2:55 PM 24.8 °F 13.4 °F 6.8 °F 46% 30.33 in 10.0 mi NNW 12.7 mph 19.6 mph N/A   Clear
3:15 PM 24.8 °F 14.6 °F 6.8 °F 46% 30.34 in 10.0 mi NW 10.4 mph - N/A   Clear
3:37 PM 24.8 °F 14.6 °F 6.8 °F 46% 30.35 in 10.0 mi North 10.4 mph 16.1 mph N/A   Scattered Clouds
3:55 PM 24.8 °F 15.3 °F 6.8 °F 46% 30.36 in 10.0 mi North 9.2 mph - N/A   Clear
4:15 PM 23.0 °F 11.7 °F 6.8 °F 50% 30.36 in 10.0 mi North 11.5 mph 16.1 mph N/A   Clear
5:19 PM 21.2 °F 12.6 °F 6.8 °F 54% 30.38 in 10.0 mi NNW 6.9 mph - N/A   Clear
5:59 PM 19.4 °F 11.5 °F 6.8 °F 58% 30.39 in 10.0 mi North 5.8 mph - N/A   Clear
6:16 PM 19.4 °F 14.3 °F 6.8 °F 58% 30.40 in 10.0 mi NNW 3.5 mph - N/A   Clear
6:37 PM 19.4 °F 14.3 °F 6.8 °F 58% 30.41 in 10.0 mi NW 3.5 mph - N/A   Clear
6:55 PM 19.4 °F 9.5 °F 6.8 °F 58% 30.42 in 10.0 mi NNW 8.1 mph - N/A   Clear
7:37 PM 17.6 °F - 6.8 °F 63% 30.44 in 10.0 mi Calm Calm - N/A   Clear
7:57 PM 17.6 °F - 6.8 °F 63% 30.44 in 10.0 mi Calm Calm - N/A   Clear
8:38 PM 17.6 °F 9.3 °F 6.8 °F 63% 30.42 in 10.0 mi NNW 5.8 mph - N/A   Clear
8:57 PM 17.6 °F 9.3 °F 6.8 °F 63% 30.43 in 10.0 mi North 5.8 mph - N/A   Clear
9:18 PM 17.6 °F 9.3 °F 6.8 °F 63% 30.43 in 10.0 mi NNW 5.8 mph - N/A   Clear
9:37 PM 15.8 °F 8.6 °F 6.8 °F 68% 30.43 in 10.0 mi North 4.6 mph - N/A   Clear
9:55 PM 15.8 °F - 6.8 °F 68% 30.42 in 10.0 mi Calm Calm - N/A   Clear
10:18 PM 15.8 °F - 6.8 °F 68% 30.42 in 10.0 mi Calm Calm - N/A   Clear
10:37 PM 14.0 °F - 8.6 °F 79% 30.42 in 10.0 mi Calm Calm - N/A   Clear
10:55 PM 14.0 °F - 6.8 °F 73% 30.41 in - Calm Calm - N/A   Unknown
11:35 PM 14.0 °F - 8.6 °F 79% 30.40 in 10.0 mi Calm Calm - N/A   Clear